Location: Iesi
(43.5167°N, 13.2333°E)
Time: 17:42:02
(UTC+00:00)

H-2A R/B - Pass Details

Date: 08 August 2020
Orbit: 734 x 836 km, 98.2° (Epoch: 23 September)

Event Time Altitude Azimuth Distance (km) Brightness Sun altitude
Rises 18:48:55 0° 181° (S) 3,291 5.0 -5.5°
Reaches altitude 10° 18:51:21 10° 188° (S) 2,350 4.3 -5.9°
Maximum altitude 18:56:20 46° 261° (W) 1,036 3.2 -6.7°
Drops below altitude 10° 19:01:12 10° 335° (NNW) 2,303 5.4 -7.5°
Sets 19:03:35 0° 341° (NNW) 3,219 6.1 -7.9°
